Погода в Коммаяке

Россия / Ставропольский край     44°06′20″N   43°51′29″E
темп.,
°C
ветер,
м/с
пор.,
м/с
влажн.,
%
обл.,
%
осадки,
мм/ч
давл.,
гПа
погр.,
м
28 февраля, вс
вс2800:00+4ю238458 0.0 101636
03:00+4с338356 0.0 101649
06:00+4ссз51189100 0.0 1017442
09:00+3зсз2495100 0.3 1016229
12:00+3сз61095100 1.4 1015447
15:00+3зсз5895100 2.5 1016454
18:00+2сз3597100 0.4 1017256
21:00+1сз2398100 3.8 1019149
1 марта, пн
пн100:00+1сз1298100 1.1 1020148
03:00+1зсз2498100 1.7 1021225
06:00+1зсз3797100 1.2 1023402
09:00+1с3497100 1.8 1025240
12:00+3сз2281100 0.1 1025534
15:00+5сз346796 0.2 1025931
18:00+2ссз247594 0.0 1027113
21:00+1зсз228070 0.0 102926
2 марта, вт
вт200:000ююз128799 0.0 102922
03:000ююз129499 0.0 102921
06:000юз119116 0.0 103021
09:00+3зюз11708 0.0 1029300
12:00+6зсз23540 0.0 10271027
15:00+7зсз33480 0.0 10251210
18:00+4сз34650 0.0 102560
21:00+2сз22801 0.0 102537
3 марта, ср
ср300:00+1з238054 0.0 102429
03:00+1зюз238370 0.0 102287
06:00+1зсз1180100 0.0 102154
09:00+3ююз3369100 0.0 1020262
12:00+5зюз2750100 0.0 10191243
15:00+9зсз61242100 0.0 10192178
18:00+2сз61094100 0.4 1021692
21:00+1сз5993100 1.1 1025634
4 марта, чт
чт400:00+2сз4693100 0.2 1026481
03:00−1сз129581 0.2 102754
06:000юз129684 0.1 1028104
09:00+2сз118691 0.1 1028359
12:00+4сз226277 0.0 1026907
15:00+7зюз125143 0.0 10251133
18:00+5юв22601 0.0 102525
21:00+3ююв22740 0.0 102524